Location: Bella Coola
(52.3721°N, 126.7539°W)
Time: 15:36:29
(UTC-07:00)

ISS - Pass Details

Date: 29 May 2019
Orbit: 408 x 418 km, 51.6° (Epoch: 18 June)

Event Time Altitude Azimuth Distance (km) Brightness Sun altitude
Rises 00:24:58 0° 280° (W) 2,361 0.4 -14.9°
Reaches altitude 10° 00:27:35 10° 258° (WSW) 1,497 -0.9 -15.0°
Enters shadow 00:29:26 16° 225° (SW) 1,174 -1.8 -15.1°
